TimeCST,TemperatureF,Dew PointF,Humidity,Sea Level PressureIn,VisibilityMPH,Wind Direction,Wind SpeedMPH,Gust SpeedMPH,PrecipitationIn,Events,Conditions,WindDirDegrees,DateUTC
12:00 AM,21.2,17.6,86,29.84,2.5,WNW,19.6,29.9,0.00,Snow,Light Snow,300,2012-12-09 06:00:00
12:16 AM,21.2,17.6,86,29.84,3.0,WNW,23.0,31.1,0.00,Snow,Light Snow,300,2012-12-09 06:16:00
12:42 AM,19.4,15.8,86,29.86,2.5,WNW,19.6,31.1,0.00,Snow,Light Snow,300,2012-12-09 06:42:00
12:49 AM,19.4,15.8,86,29.86,3.0,WNW,16.1,26.5,0.00,Snow,Light Snow,300,2012-12-09 06:49:00
12:52 AM,19.9,16.0,85,29.94,3.0,WNW,21.9,33.4,0.00,Snow,Light Snow,300,2012-12-09 06:52:00
1:00 AM,19.4,15.8,86,29.86,3.0,WNW,23.0,33.4,0.00,Snow,Light Snow,300,2012-12-09 07:00:00
1:52 AM,16.0,10.0,77,29.97,9.0,WNW,15.0,28.8,0.00,,Mostly Cloudy,300,2012-12-09 07:52:00
2:22 AM,14.0,8.6,79,29.89,6.0,NW,26.5,36.8,0.00,Snow,Light Snow,320,2012-12-09 08:22:00
2:52 AM,12.9,6.1,74,30.01,10.0,NW,24.2,35.7,0.00,,Overcast,310,2012-12-09 08:52:00
3:01 AM,12.2,6.8,79,29.92,10.0,NW,25.3,36.8,N/A,,Overcast,310,2012-12-09 09:01:00
3:19 AM,12.2,5.0,73,29.92,9.0,NW,28.8,38.0,N/A,,Overcast,310,2012-12-09 09:19:00
3:52 AM,10.9,3.9,73,30.04,10.0,NW,24.2,38.0,N/A,,Overcast,310,2012-12-09 09:52:00
4:52 AM,10.0,3.0,73,30.07,10.0,NW,27.6,41.4,N/A,,Mostly Cloudy,320,2012-12-09 10:52:00
5:05 AM,10.4,3.2,73,29.98,10.0,NW,24.2,35.7,N/A,,Scattered Clouds,320,2012-12-09 11:05:00
5:52 AM,9.0,1.9,73,30.11,7.0,NW,28.8,40.3,0.00,,Overcast,320,2012-12-09 11:52:00
6:52 AM,9.0,1.9,73,30.15,3.0,NW,29.9,39.1,0.00,Snow,Light Snow,320,2012-12-09 12:52:00
7:15 AM,8.6,1.4,73,30.06,3.0,NNW,24.2,36.8,0.00,Snow,Light Snow,330,2012-12-09 13:15:00
7:35 AM,8.6,1.4,73,30.07,2.5,NW,20.7,34.5,0.00,Snow,Light Snow,320,2012-12-09 13:35:00
7:52 AM,8.1,1.9,76,30.19,2.5,NW,27.6,38.0,0.00,Snow,Light Snow,320,2012-12-09 13:52:00
8:19 AM,8.6,1.4,73,30.09,4.0,NW,25.3,39.1,0.00,,Overcast,320,2012-12-09 14:19:00
8:32 AM,8.6,1.4,73,30.10,3.0,NW,24.2,39.1,0.00,,Overcast,320,2012-12-09 14:32:00
8:38 AM,8.6,1.4,73,30.10,2.0,NW,26.5,38.0,0.00,,Overcast,320,2012-12-09 14:38:00
8:52 AM,8.1,1.0,73,30.23,2.5,NNW,28.8,41.4,0.00,,Overcast,330,2012-12-09 14:52:00
9:02 AM,8.6,1.4,73,30.11,3.0,NW,23.0,39.1,0.00,,Overcast,320,2012-12-09 15:02:00
9:29 AM,8.6,1.4,73,30.12,4.0,NNW,28.8,46.0,0.00,,Overcast,330,2012-12-09 15:29:00
9:43 AM,8.6,1.4,73,30.13,2.5,NNW,31.1,42.6,0.00,,Overcast,330,2012-12-09 15:43:00
9:52 AM,9.0,1.0,70,30.26,3.0,NNW,29.9,43.7,0.00,,Overcast,330,2012-12-09 15:52:00
10:05 AM,8.6,1.4,73,30.15,1.8,NNW,35.7,47.2,0.00,,Mostly Cloudy,330,2012-12-09 16:05:00
10:14 AM,8.6,1.4,73,30.15,3.0,NNW,26.5,43.7,0.00,,Overcast,330,2012-12-09 16:14:00
10:52 AM,9.0,1.0,70,30.30,6.0,NNW,28.8,38.0,0.00,,Overcast,330,2012-12-09 16:52:00
11:41 AM,10.4,1.4,67,30.18,2.5,NNW,32.2,41.4,0.00,Snow,Light Snow,330,2012-12-09 17:41:00
11:52 AM,10.0,1.9,70,30.32,1.8,NNW,24.2,42.6,0.00,Snow,Light Snow,330,2012-12-09 17:52:00
12:03 PM,10.4,3.2,73,30.19,2.0,NNW,27.6,39.1,0.00,Snow,Light Snow,330,2012-12-09 18:03:00
12:15 PM,8.6,1.4,73,30.19,1.2,NNW,32.2,41.4,0.00,Snow,Light Snow,330,2012-12-09 18:15:00
12:23 PM,8.6,1.4,73,30.18,1.0,NNW,29.9,41.4,0.00,Snow,Light Snow,330,2012-12-09 18:23:00
12:42 PM,10.4,3.2,73,30.18,1.2,NNW,33.4,43.7,0.00,Snow,Light Snow,330,2012-12-09 18:42:00
12:49 PM,10.4,3.2,73,30.18,1.0,NNW,29.9,43.7,0.00,Snow,Light Snow,330,2012-12-09 18:49:00
12:52 PM,10.0,3.0,73,30.33,1.0,NNW,26.5,41.4,0.00,Snow,Light Snow,330,2012-12-09 18:52:00
1:05 PM,10.4,3.2,73,30.18,1.5,NNW,24.2,39.1,0.00,Snow,Light Snow,330,2012-12-09 19:05:00
1:18 PM,10.4,3.2,73,30.19,2.0,NNW,18.4,35.7,0.00,Snow,Light Snow,330,2012-12-09 19:18:00
1:41 PM,10.4,3.2,73,30.20,3.0,NNW,23.0,34.5,0.00,Snow,Light Snow,330,2012-12-09 19:41:00
1:52 PM,10.0,3.0,73,30.35,5.0,NNW,19.6,33.4,0.00,Snow,Light Snow,340,2012-12-09 19:52:00
2:48 PM,10.4,3.2,73,30.22,8.0,NNW,23.0,32.2,0.00,,Overcast,330,2012-12-09 20:48:00
2:52 PM,10.0,3.0,73,30.37,8.0,NNW,21.9,35.7,0.00,,Overcast,330,2012-12-09 20:52:00
3:52 PM,10.0,3.0,73,30.41,3.0,NW,20.7,28.8,N/A,,Haze,320,2012-12-09 21:52:00
4:52 PM,9.0,1.0,70,30.41,10.0,NW,12.7,-,N/A,,Scattered Clouds,320,2012-12-09 22:52:00
5:52 PM,7.0,-0.0,73,30.41,10.0,NW,11.5,-,N/A,,Clear,320,2012-12-09 23:52:00
6:52 PM,5.0,-0.9,76,30.43,10.0,WNW,6.9,-,N/A,,Clear,300,2012-12-10 00:52:00
7:52 PM,3.0,-2.0,80,30.43,10.0,WNW,8.1,-,N/A,,Clear,290,2012-12-10 01:52:00
8:52 PM,1.0,-4.0,79,30.40,10.0,WNW,8.1,-,N/A,,Clear,290,2012-12-10 02:52:00
9:52 PM,-0.0,-5.1,79,30.38,10.0,West,5.8,-,N/A,,Clear,280,2012-12-10 03:52:00
10:52 PM,-4.0,-8.0,83,30.36,10.0,WSW,5.8,-,N/A,,Clear,240,2012-12-10 04:52:00
11:52 PM,-5.1,-9.0,83,30.32,10.0,SW,4.6,-,N/A,,Clear,220,2012-12-10 05:52:00